FW2297 Weather Reports


Display with metric or nautical units.
time (UTC)temp
F
wind
direction
speed
MPH
gust
MPH
rain 1hr
in
rain 24hr
in
rain mn
in
humidity
%
barometer
mb
20260906064558 57 0 0.0 0.0 0.16 0.58 0.22 96 1014.2
20260906064051 57 0 0.0 0.0 0.16 0.57 0.21 96 1014.3
20260906063555 57 0 0.0 0.0 0.18 0.56 0.20 95 1014.1
20260906063102 57 0 0.0 0.0 0.19 0.55 0.19 95 1014.2
20260906062550 57 0 0.0 0.0 0.18 0.54 0.18 95 1014.2
20260906062051 57 0 0.0 0.0 0.16 0.52 0.16 95 1014.3
20260906061605 57 0 0.0 0.0 0.14 0.50 0.14 96 1014.2
20260906061055 57 0 0.0 0.0 0.12 0.48 0.12 96 1014.1
20260906060550 58 0 0.0 0.0 0.10 0.46 0.10 96 1014.1
20260906055627 58 0 0.0 0.0 0.07 0.43 0.07 96 1014.0
20260906055050 58 0 0.0 0.0 0.06 0.42 0.06 95 1014.0
20260906054559 58 0 0.0 0.0 0.06 0.42 0.06 95 1014.0
20260906054051 58 0 0.0 0.0 0.05 0.41 0.05 96 1013.8
20260906053550 58 0 0.0 0.0 0.02 0.38 0.02 96 1013.9
20260906053056 58 0 0.0 0.0 0.00 0.36 0.00 96 1013.8
20260906052553 59 0 0.0 0.0 0.00 0.36 0.00 96 1013.7
20260906052051 59 0 0.0 0.0 0.00 0.36 0.00 96 1013.8
20260906051608 59 0 0.0 0.0 0.00 0.36 0.00 96 1013.8
20260906051051 59 0 0.0 0.0 0.00 0.36 0.00 96 1013.7
20260906050550 59 0 0.0 0.0 0.00 0.36 0.00 96 1013.7
20260906050100 59 0 0.0 0.0 0.00 0.36 0.00 96 1014.0
20260906045600 59 0 0.0 0.0 0.00 0.36 0.00 96 1013.8
20260906045052 59 0 0.0 0.0 0.00 0.36 0.00 96 1014.0
20260906044556 59 0 0.0 0.0 0.00 0.36 0.00 96 1013.9
20260906044048 59 0 0.0 0.0 0.00 0.36 0.00 96 1013.9
20260906043549 59 0 0.0 0.0 0.00 0.36 0.00 96 1014.0
20260906043056 59 0 0.0 0.0 0.00 0.36 0.00 96 1014.0
20260906042550 59 0 0.0 0.0 0.00 0.36 0.00 96 1014.0
20260906042051 59 0 0.0 0.0 0.00 0.36 0.00 96 1013.9
20260906041614 59 0 0.0 0.0 0.00 0.36 0.00 96 1013.9
20260906041052 59 0 0.0 0.0 0.00 0.36 0.00 96 1014.0
20260906040548 59 0 0.0 0.0 0.00 0.36 0.00 96 1014.0
20260906040118 59 0 0.0 0.0 0.00 0.36 0.00 96 1014.0
20260906035550 59 0 0.0 0.0 0.00 0.36 0.36 96 1014.0
20260906035051 59 0 0.0 0.0 0.00 0.36 0.36 96 1013.9
20260906034557 59 0 0.0 0.0 0.00 0.36 0.36 96 1013.8
20260906034049 59 0 0.0 0.0 0.00 0.36 0.36 96 1013.6
20260906033553 59 0 0.0 0.0 0.00 0.36 0.36 96 1013.4
20260906033107 59 0 0.0 0.0 0.00 0.36 0.36 96 1013.5
20260906032551 59 0 0.0 0.0 0.00 0.36 0.36 96 1013.6
20260906032053 59 0 0.0 0.0 0.00 0.36 0.36 96 1013.6
20260906031601 59 0 0.0 0.0 0.00 0.36 0.36 96 1013.5
20260906031049 59 0 0.0 0.0 0.00 0.36 0.36 96 1013.5
20260906030550 59 0 0.0 0.0 0.00 0.36 0.36 96 1013.7
20260906030108 59 0 0.0 0.0 0.00 0.36 0.36 96 1013.5
20260906025548 59 0 0.0 0.0 0.00 0.36 0.36 96 1013.7
20260906025052 59 0 0.0 0.0 0.00 0.36 0.36 96 1013.5
20260906024625 59 0 0.0 0.0 0.00 0.36 0.36 96 1013.5
20260906024048 59 0 0.0 0.0 0.00 0.36 0.36 96 1013.6
20260906023551 59 0 0.0 0.0 0.00 0.36 0.36 96 1013.6
20260906023104 59 0 0.0 0.0 0.00 0.36 0.36 96 1013.7
20260906022553 59 0 0.0 0.0 0.00 0.36 0.36 96 1013.7
20260906022051 59 0 0.0 0.0 0.00 0.36 0.36 95 1013.5
20260906021609 59 0 0.0 0.0 0.00 0.36 0.36 95 1013.5
20260906021047 59 0 0.0 0.0 0.00 0.36 0.36 95 1013.5
20260906020548 59 0 0.0 0.0 0.00 0.36 0.36 95 1013.4
20260906015548 59 0 0.0 0.0 0.00 0.36 0.36 95 1013.7
20260906015051 59 0 0.0 0.0 0.00 0.36 0.36 95 1013.4
20260906014609 59 0 0.0 0.0 0.00 0.36 0.36 95 1013.6
20260906014051 59 0 0.0 0.0 0.00 0.36 0.36 95 1013.5
20260906013552 59 0 0.0 0.0 0.00 0.36 0.36 95 1013.6
20260906013103 59 0 0.0 0.0 0.00 0.36 0.36 95 1013.5
20260906012552 59 0 0.0 0.0 0.00 0.36 0.36 95 1013.6
20260906012052 59 0 0.0 0.0 0.00 0.36 0.36 95 1013.5
20260906011603 59 0 0.0 0.0 0.00 0.36 0.36 95 1013.6
20260906011050 59 0 0.0 0.0 0.00 0.36 0.36 95 1013.4
20260906010552 59 0 0.0 0.0 0.00 0.36 0.36 95 1013.3
20260906010120 59 0 0.0 0.0 0.00 0.36 0.36 95 1013.5
20260906005551 59 0 0.0 0.0 0.00 0.36 0.36 95 1013.7
20260906005052 59 0 0.0 0.0 0.00 0.36 0.36 95 1013.4
20260906004607 59 0 0.0 0.0 0.00 0.36 0.36 95 1013.5
20260906004051 59 0 0.0 0.0 0.00 0.36 0.36 95 1013.7
20260906003551 59 0 0.0 0.0 0.00 0.36 0.36 95 1013.7
20260906003118 59 0 0.0 0.0 0.00 0.36 0.36 95 1013.6
20260906002551 59 0 0.0 0.0 0.00 0.36 0.36 95 1013.5
20260906002054 59 0 0.0 0.0 0.00 0.36 0.36 95 1013.5
20260906001558 59 0 0.0 0.0 0.00 0.36 0.36 95 1013.3
20260906001052 59 0 0.0 0.0 0.00 0.36 0.36 95 1013.3
20260906000552 59 0 0.0 0.0 0.00 0.36 0.36 95 1013.4
20260906000105 59 0 0.0 0.0 0.00 0.36 0.36 94 1013.3
20260905235655 59 0 0.0 0.0 0.00 0.36 0.36 94 1013.3
20260905235052 59 0 0.0 0.0 0.00 0.36 0.36 94 1013.1
20260905234609 59 0 0.0 0.0 0.00 0.36 0.36 94 1013.0
20260905234051 59 0 0.0 0.0 0.00 0.36 0.36 94 1012.9
20260905233551 59 0 0.0 0.0 0.00 0.36 0.36 94 1012.8
20260905233132 60 0 0.0 0.0 0.00 0.36 0.36 94 1012.8
20260905233104 60 0 0.0 0.0 0.01 0.36 0.36 94 1012.9
20260905231051 60 0 0.0 0.0 0.03 0.36 0.36 94 1012.9
20260905230552 60 0 0.0 0.0 0.04 0.36 0.36 94 1012.9
20260905230109 60 0 0.0 0.0 0.04 0.36 0.36 94 1012.7
20260905225600 60 0 0.0 0.0 0.04 0.36 0.36 93 1012.7
20260905225051 60 0 0.0 0.0 0.06 0.36 0.36 93 1012.7
20260905224602 60 0 0.0 0.0 0.07 0.36 0.36 93 1012.8
20260905224052 60 0 0.0 0.0 0.08 0.36 0.36 93 1012.8
20260905223551 60 0 0.0 0.0 0.12 0.36 0.36 93 1012.7
20260905223100 60 0 0.0 0.0 0.15 0.36 0.36 93 1012.7
20260905222553 60 0 0.0 0.0 0.15 0.35 0.35 93 1012.7
20260905222051 60 0 0.0 0.0 0.17 0.35 0.35 93 1012.8
20260905221555 60 0 0.0 0.0 0.18 0.34 0.34 93 1012.7
20260905221048 60 0 0.0 0.0 0.19 0.33 0.33 92 1012.8
20260905220547 60 0 0.0 0.0 0.20 0.32 0.32 92 1012.6
20260905220109 60 0 0.0 0.0 0.24 0.32 0.32 92 1012.5
20260905215551 60 0 0.0 0.0 0.25 0.32 0.32 92 1012.5
20260905215050 60 0 0.0 0.0 0.23 0.30 0.30 92 1012.3
20260905214602 60 0 0.0 0.0 0.22 0.29 0.29 91 1012.1
20260905214051 60 0 0.0 0.0 0.21 0.28 0.28 91 1012.1
20260905213555 60 0 0.0 0.0 0.18 0.24 0.24 91 1012.1
20260905213110 60 0 0.0 0.0 0.15 0.21 0.21 91 1012.2
20260905212552 61 0 0.0 1.0 0.16 0.20 0.20 91 1012.1
20260905212052 61 0 0.0 1.0 0.14 0.18 0.18 90 1011.9
20260905211619 61 0 0.0 4.0 0.15 0.16 0.16 90 1011.8
20260905211052 61 0 0.0 8.0 0.13 0.14 0.14 89 1011.8
20260905210554 62 108 0.0 12.0 0.11 0.12 0.12 88 1011.6
20260905210121 62 0 0.0 12.0 0.07 0.08 0.08 87 1011.6
20260905205551 63 0 0.0 9.0 0.06 0.07 0.07 87 1011.4
20260905205055 63 0 1.0 9.0 0.06 0.07 0.07 87 1011.4
20260905204618 64 0 0.0 9.0 0.06 0.07 0.07 87 1011.3
20260905204051 64 86 0.0 9.0 0.06 0.07 0.07 86 1011.3
20260905203551 65 85 1.0 9.0 0.05 0.06 0.06 85 1011.3
20260905203111 66 0 0.0 9.0 0.05 0.06 0.06 84 1011.1
20260905202550 67 83 1.0 9.0 0.03 0.04 0.04 81 1011.3
20260905202051 68 0 0.0 7.0 0.03 0.04 0.04 79 1011.3
20260905201606 69 0 1.0 9.0 0.00 0.01 0.01 77 1011.1
20260905201051 70 0 0.0 9.0 0.00 0.01 0.01 74 1011.1
20260905200551 70 0 0.0 4.0 0.01 0.01 0.01 72 1011.2
20260905200107 70 0 0.0 4.0 0.01 0.01 0.01 71 1011.1
20260905195552 70 0 0.0 0.0 0.01 0.01 0.01 74 1011.1
20260905195051 69 0 0.0 0.0 0.01 0.01 0.01 74 1011.0
20260905194605 69 0 0.0 5.0 0.01 0.01 0.01 73 1011.0
20260905194050 70 0 0.0 5.0 0.01 0.01 0.01 74 1011.1
20260905193551 69 0 0.0 0.0 0.01 0.01 0.01 79 1011.0
20260905193110 68 0 0.0 0.0 0.01 0.01 0.01 80 1011.0
20260905192552 68 0 0.0 0.0 0.01 0.01 0.01 80 1011.1
20260905192136 68 0 0.0 0.0 0.01 0.01 0.01 79 1011.0
20260905191606 68 0 0.0 0.0 0.01 0.01 0.01 77 1011.2
20260905191131 69 0 0.0 2.0 0.01 0.01 0.01 78 1011.1
20260905190552 70 0 0.0 2.0 0.00 0.00 0.00 76 1011.1
20260905190103 70 0 0.0 5.0 0.00 0.00 0.00 74 1011.0
20260905185552 70 0 0.0 5.0 0.00 0.00 0.00 75 1011.0
20260905185051 69 262 0.0 4.0 0.00 0.00 0.00 75 1011.1
20260905184611 69 0 0.0 0.0 0.00 0.00 0.00 75 1010.9
20260905184138 69 0 0.0 0.0 0.00 0.00 0.00 74 1011.0
20260905183551 69 0 0.0 0.0 0.00 0.00 0.00 73 1011.0
20260905183059 69 0 0.0 0.0 0.00 0.00 0.00 74 1010.9
20260905182552 69 0 0.0 2.0 0.00 0.00 0.00 75 1011.0
20260905182052 68 0 0.0 2.0 0.00 0.00 0.00 74 1011.1
20260905181605 69 0 0.0 2.0 0.00 0.00 0.00 75 1011.0
20260905181051 68 0 0.0 2.0 0.00 0.00 0.00 76 1011.2
20260905180555 68 0 0.0 0.0 0.00 0.00 0.00 78 1011.2
20260905180108 68 0 0.0 0.0 0.00 0.00 0.00 76 1011.2
20260905175551 68 0 0.0 0.0 0.00 0.00 0.00 77 1011.2
20260905175145 68 0 0.0 0.0 0.00 0.00 0.00 79 1011.2
20260905174604 67 0 0.0 0.0 0.00 0.00 0.00 78 1011.2
20260905174052 67 0 0.0 0.0 0.00 0.00 0.00 78 1011.1
20260905173551 67 0 0.0 0.0 0.00 0.00 0.00 78 1011.0
20260905173103 67 0 0.0 5.0 0.00 0.00 0.00 78 1011.1
20260905172552 67 0 0.0 5.0 0.00 0.00 0.00 80 1011.0
20260905172052 66 0 0.0 5.0 0.00 0.00 0.00 81 1011.1
20260905171602 66 0 0.0 1.0 0.00 0.00 0.00 83 1011.1
20260905171053 65 0 0.0 4.0 0.00 0.00 0.00 82 1011.1
20260905170552 65 0 0.0 4.0 0.00 0.00 0.00 83 1011.0
20260905170112 65 0 0.0 4.0 0.00 0.00 0.00 83 1011.1
20260905165551 64 0 0.0 4.0 0.00 0.00 0.00 83 1011.0
20260905165053 64 0 0.0 4.0 0.00 0.00 0.00 83 1011.1
20260905164559 64 0 0.0 4.0 0.00 0.00 0.00 84 1011.0
20260905164052 64 0 0.0 6.0 0.00 0.00 0.00 85 1011.1
20260905163551 64 0 0.0 6.0 0.00 0.00 0.00 83 1011.0
20260905163058 65 0 0.0 6.0 0.00 0.00 0.00 83 1011.0
20260905162556 65 0 0.0 0.0 0.00 0.00 0.00 82 1011.1
20260905162053 65 0 0.0 5.0 0.00 0.00 0.00 82 1011.1
20260905161600 66 0 0.0 5.0 0.00 0.00 0.00 80 1011.1
20260905161052 67 0 0.0 5.0 0.00 0.00 0.00 79 1011.1
20260905160556 68 0 0.0 3.0 0.00 0.00 0.00 78 1011.2
20260905160059 69 0 0.0 0.0 0.00 0.00 0.00 77 1011.1
20260905155551 69 0 0.0 0.0 0.00 0.00 0.00 75 1011.1
20260905155052 69 0 0.0 0.0 0.00 0.00 0.00 73 1011.0
20260905154603 70 0 0.0 0.0 0.00 0.00 0.00 72 1010.9
20260905154052 70 0 0.0 0.0 0.00 0.00 0.00 70 1011.0
20260905153552 70 0 0.0 0.0 0.00 0.00 0.00 71 1010.9
20260905153103 70 0 0.0 0.0 0.00 0.00 0.00 69 1010.8
20260905152552 70 0 0.0 0.0 0.00 0.00 0.00 69 1010.8
20260905152052 69 0 0.0 0.0 0.00 0.00 0.00 69 1010.8
20260905151603 69 0 0.0 0.0 0.00 0.00 0.00 68 1010.7
20260905151052 70 0 0.0 0.0 0.00 0.00 0.00 71 1010.8
20260905150552 70 0 0.0 0.0 0.00 0.00 0.00 69 1010.8
20260905150059 70 0 0.0 0.0 0.00 0.00 0.00 67 1010.7
20260905145551 70 0 0.0 0.0 0.00 0.00 0.00 68 1010.7
20260905145055 70 0 0.0 4.0 0.00 0.00 0.00 67 1010.7
20260905144604 70 0 0.0 4.0 0.00 0.00 0.00 69 1010.6
20260905144053 70 31 0.0 2.0 0.00 0.00 0.00 69 1010.7
20260905143551 70 0 0.0 3.0 0.00 0.00 0.00 69 1010.4
20260905143105 70 0 0.0 4.0 0.00 0.00 0.00 66 1010.4
20260905142551 70 0 0.0 4.0 0.00 0.00 0.00 65 1010.6
20260905142054 70 0 0.0 4.0 0.00 0.00 0.00 66 1010.5
20260905141600 71 0 0.0 1.0 0.00 0.00 0.00 66 1010.4
20260905141055 71 0 0.0 4.0 0.00 0.00 0.00 66 1010.4
20260905140551 70 0 0.0 5.0 0.00 0.00 0.00 66 1010.3
20260905140112 69 0 0.0 5.0 0.00 0.00 0.00 68 1010.4
20260905135551 69 0 0.0 2.0 0.00 0.00 0.00 67 1010.2
20260905135051 69 0 0.0 1.0 0.00 0.00 0.00 66 1010.3
20260905134611 69 0 0.0 5.0 0.00 0.00 0.00 66 1010.1
20260905134055 69 0 0.0 5.0 0.00 0.00 0.00 67 1010.1
20260905133550 69 0 0.0 0.0 0.00 0.00 0.00 68 1010.1
20260905133105 69 0 0.0 1.0 0.00 0.00 0.00 68 1010.1
20260905132552 69 0 0.0 3.0 0.00 0.00 0.00 69 1010.0
20260905132052 68 0 0.0 5.0 0.00 0.00 0.00 71 1010.0
20260905131601 68 0 0.0 5.0 0.00 0.00 0.00 71 1010.0
20260905131051 68 0 0.0 2.0 0.00 0.00 0.00 71 1010.1
20260905130552 68 0 0.0 0.0 0.00 0.00 0.00 75 1010.1
20260905130101 67 0 0.0 0.0 0.00 0.00 0.00 75 1009.9
20260905125554 67 0 0.0 0.0 0.00 0.00 0.00 76 1010.0
20260905125051 67 0 0.0 0.0 0.00 0.00 0.00 76 1009.9
20260905124601 66 0 0.0 1.0 0.00 0.00 0.00 77 1009.8
20260905124052 66 0 0.0 1.0 0.00 0.00 0.00 78 1009.8
20260905123551 66 0 0.0 1.0 0.00 0.00 0.00 79 1009.9
20260905123105 65 0 0.0 0.0 0.00 0.00 0.00 81 1009.9
20260905122551 65 0 0.0 3.0 0.00 0.00 0.00 82 1010.0
20260905122052 64 0 0.0 3.0 0.00 0.00 0.00 84 1009.9
20260905121602 63 0 0.0 3.0 0.00 0.00 0.00 88 1010.2
20260905121052 62 0 0.0 0.0 0.00 0.00 0.00 90 1010.1
20260905120552 61 0 0.0 0.0 0.00 0.00 0.00 91 1010.1
20260905120107 61 0 0.0 0.0 0.00 0.00 0.00 91 1009.9
20260905115555 61 0 0.0 0.0 0.00 0.00 0.00 91 1009.8
20260905115053 61 0 0.0 0.0 0.00 0.00 0.00 92 1009.7
20260905114601 61 0 0.0 0.0 0.00 0.00 0.00 92 1009.8
20260905114052 61 0 0.0 0.0 0.00 0.00 0.00 92 1009.8
20260905113552 61 0 0.0 0.0 0.00 0.00 0.00 92 1009.7
20260905113106 61 0 0.0 0.0 0.00 0.00 0.00 92 1009.7
20260905112551 60 0 0.0 0.0 0.00 0.00 0.00 92 1009.5
20260905112051 60 0 0.0 0.0 0.00 0.00 0.00 92 1009.7
20260905111646 61 0 0.0 0.0 0.00 0.00 0.00 92 1009.6
20260905111051 61 0 0.0 0.0 0.00 0.00 0.00 91 1009.7
20260905110551 61 0 0.0 0.0 0.00 0.00 0.00 91 1009.4
20260905110101 60 0 0.0 0.0 0.00 0.00 0.00 91 1009.4
20260905105551 60 0 0.0 0.0 0.00 0.00 0.00 91 1009.5
20260905105051 60 0 0.0 0.0 0.00 0.00 0.00 92 1009.4
20260905105016 60 0 0.0 3.0 0.00 0.00 0.00 92 1009.3
20260905102554 60 0 0.0 0.0 0.00 0.00 0.00 92 1009.1
20260905102051 60 0 0.0 0.0 0.00 0.00 0.00 93 1009.2
20260905101557 60 0 0.0 0.0 0.00 0.00 0.00 93 1009.2
20260905101051 60 0 0.0 0.0 0.00 0.00 0.00 93 1009.4
20260905100550 60 0 0.0 0.0 0.00 0.00 0.00 93 1009.2
20260905100110 60 0 0.0 0.0 0.00 0.00 0.00 93 1009.2
20260905095550 60 0 0.0 0.0 0.00 0.00 0.00 94 1009.1
20260905095054 60 0 0.0 0.0 0.00 0.00 0.00 94 1009.2
20260905094558 60 0 0.0 0.0 0.00 0.00 0.00 94 1009.2
20260905094051 60 0 0.0 0.0 0.00 0.00 0.00 94 1009.2
20260905093551 60 0 0.0 0.0 0.00 0.00 0.00 94 1009.1
20260905093101 60 0 0.0 0.0 0.00 0.00 0.00 94 1009.1
20260905092550 59 0 0.0 0.0 0.00 0.00 0.00 95 1009.1
20260905092050 59 0 0.0 0.0 0.00 0.00 0.00 95 1009.1
20260905091610 59 0 0.0 0.0 0.00 0.00 0.00 94 1009.0
20260905091051 59 0 0.0 0.0 0.00 0.00 0.00 95 1009.0
20260905090550 59 0 0.0 0.0 0.00 0.00 0.00 95 1009.0
20260905090103 58 0 0.0 0.0 0.00 0.00 0.00 94 1008.8
20260905085551 58 0 0.0 0.0 0.00 0.00 0.00 94 1008.8
20260905085058 58 0 0.0 0.0 0.00 0.00 0.00 94 1008.9
20260905084600 58 0 0.0 0.0 0.00 0.00 0.00 94 1008.9
20260905084053 58 0 0.0 0.0 0.00 0.00 0.00 94 1009.0
20260905083552 58 0 0.0 0.0 0.00 0.00 0.00 94 1008.9
20260905083058 58 0 0.0 0.0 0.00 0.00 0.00 93 1008.8
20260905082551 58 0 0.0 0.0 0.00 0.00 0.00 93 1008.8
20260905082051 58 0 0.0 0.0 0.00 0.00 0.00 93 1008.8
20260905081606 58 0 0.0 0.0 0.00 0.00 0.00 93 1008.8
20260905081050 58 0 0.0 0.0 0.00 0.00 0.00 93 1008.8
20260905080550 58 0 0.0 0.0 0.00 0.00 0.00 93 1008.8
20260905080104 59 0 0.0 0.0 0.00 0.00 0.00 93 1008.9
20260905075551 59 0 0.0 0.0 0.00 0.00 0.00 94 1008.8
20260905075050 59 0 0.0 0.0 0.00 0.00 0.00 94 1008.7
20260905074600 59 0 0.0 0.0 0.00 0.00 0.00 94 1008.9
20260905074051 59 0 0.0 0.0 0.00 0.00 0.00 94 1008.8
20260905073550 59 0 0.0 0.0 0.00 0.00 0.00 94 1009.0
20260905073103 59 0 0.0 0.0 0.00 0.00 0.00 94 1008.8
20260905072555 59 0 0.0 0.0 0.00 0.00 0.00 94 1008.8
20260905072118 59 0 0.0 0.0 0.00 0.00 0.00 94 1008.9
20260905071603 58 0 0.0 0.0 0.00 0.00 0.00 94 1009.1
20260905071050 58 0 0.0 0.0 0.00 0.00 0.00 93 1009.1
20260905070550 58 0 0.0 0.0 0.00 0.00 0.00 93 1009.3
20260905070100 58 0 0.0 0.0 0.00 0.00 0.00 93 1009.3
20260905065551 58 0 0.0 0.0 0.00 0.00 0.00 93 1009.3
20260905065050 58 0 0.0 0.0 0.00 0.00 0.00 92 1009.3